This is the latest recevied weather packets stored in our database for station/object KM4CBK. If no packets are shown the sender has not sent any weather packets the latest 10 day(s).
| Time | Temp. | Humidity | Pressure | Rain* | Wind** | Luminosity | Snow |
|---|---|---|---|---|---|---|---|
| 1778008558 | 27.78° C | 49% | 1012.7 hPa | 0 mm | - | 537 W/m² | - |
| 1778008256 | 27.78° C | 48% | 1012.5 hPa | 0 mm | - | 537 W/m² | - |
| 1778007950 | 28.33° C | 47% | 1012.8 hPa | 0 mm | - | 515 W/m² | - |
| 1778007646 | 28.33° C | 50% | 1012.9 hPa | 0 mm | - | 564 W/m² | - |
| 1778007343 | 27.78° C | 48% | 1012.8 hPa | 0 mm | - | 442 W/m² | - |
| 1778007040 | 27.78° C | 50% | 1012.8 hPa | 0 mm | - | 624 W/m² | - |
| 1778006737 | 27.22° C | 48% | 1013 hPa | 0 mm | - | 595 W/m² | - |
| 1778006433 | 26.67° C | 51% | 1013 hPa | 0 mm | - | 453 W/m² | - |
| 1778006130 | 27.22° C | 48% | 1013.2 hPa | 0 mm | - | 563 W/m² | - |
| 1778005828 | 27.78° C | 48% | 1013.1 hPa | 0 mm | - | 669 W/m² | - |
| 1778005524 | 27.78° C | 52% | 1013.3 hPa | 0 mm | - | 674 W/m² | - |
| 1778005221 | 28.33° C | 50% | 1013.5 hPa | 0 mm | - | 625 W/m² | - |
| 1778004917 | 26.67° C | 51% | 1013.2 hPa | 0 mm | - | 327 W/m² | - |
| 1778004615 | 27.22° C | 51% | 1013.3 hPa | 0 mm | - | 460 W/m² | - |
| 1778004310 | 26.67° C | 53% | 1013.7 hPa | 0 mm | - | 791 W/m² | - |
| 1778004009 | 26.67° C | 51% | 1013.6 hPa | 0 mm | - | 763 W/m² | - |
| 1778003703 | 26.11° C | 55% | 1013.6 hPa | 0 mm | - | 672 W/m² | - |
| 1778003400 | 26.11° C | 51% | 1013.7 hPa | 0 mm | - | 706 W/m² | - |
| 1778003098 | 27.22° C | 49% | 1013.8 hPa | 0 mm | - | 526 W/m² | - |
| 1778002793 | 25.56° C | 53% | 1014.1 hPa | 0 mm | - | 582 W/m² | - |
| 1778002490 | 25.56° C | 51% | 1014.1 hPa | 0 mm | - | 565 W/m² | - |
| 1778002187 | 26.11° C | 54% | 1014 hPa | 0 mm | - | 695 W/m² | - |
| 1778001886 | 25.56° C | 57% | 1014.2 hPa | 0 mm | - | 684 W/m² | - |
| 1778001584 | 26.11° C | 53% | 1014.2 hPa | 0 mm | - | 606 W/m² | - |
| 1778001282 | 25.56° C | 56% | 1014.1 hPa | 0 mm | - | 537 W/m² | - |
* Rain latest hour (hover to see other rain measurements)
** Current wind speed in m/s (hover to see current wind gust speed)